GW4678 Weather Reports


Display with metric or nautical units.
time (UTC)temp
F
wind
direction
speed
MPH
gust
MPH
rain 1hr
in
rain 24hr
in
rain mn
in
humidity
%
barometer
mb
20260505041527 63 342 0.0 2.0 0.00 0.00 0.00 68 1010.6
20260505041006 63 342 0.0 2.0 0.00 0.00 0.00 67 1010.5
20260505040510 63 359 0.0 2.0 0.00 0.00 0.00 66 1010.4
20260505040030 64 359 0.0 2.0 0.00 0.00 0.00 65 1010.4
20260505035511 64 348 0.0 2.0 0.00 0.00 0.00 64 1010.3
20260505035012 65 338 0.0 2.0 0.00 0.00 0.00 63 1010.3
20260505034528 65 338 0.0 3.0 0.00 0.00 0.00 62 1010.2
20260505034004 66 349 0.0 4.0 0.00 0.00 0.00 61 1010.1
20260505033503 66 336 1.0 4.0 0.00 0.00 0.00 61 1010.1
20260505033017 66 345 0.0 2.0 0.00 0.00 0.00 61 1010.1
20260505032506 66 348 0.0 1.0 0.00 0.00 0.00 61 1010.1
20260505032008 67 348 0.0 1.0 0.00 0.00 0.00 60 1010.0
20260505031517 67 336 0.0 0.0 0.00 0.00 0.00 60 1009.9
20260505031005 67 347 0.0 2.0 0.00 0.00 0.00 59 1009.9
20260505030508 67 347 0.0 2.0 0.00 0.00 0.00 58 1009.9
20260505030023 68 347 0.0 2.0 0.00 0.00 0.00 57 1009.9
20260505025508 68 347 0.0 2.0 0.00 0.00 0.00 56 1009.7
20260505025008 68 324 0.0 2.0 0.00 0.00 0.00 55 1009.7
20260505024543 68 253 0.0 2.0 0.00 0.00 0.00 58 1009.6
20260505024010 68 315 0.0 2.0 0.00 0.00 0.00 57 1009.5
20260505023509 69 242 0.0 2.0 0.00 0.00 0.00 57 1009.4
20260505023038 69 237 0.0 2.0 0.00 0.00 0.00 56 1009.5
20260505022503 69 255 0.0 2.0 0.00 0.00 0.00 55 1009.5
20260505022008 70 248 0.0 2.0 0.00 0.00 0.00 55 1009.4
20260505021518 70 227 0.0 2.0 0.00 0.00 0.00 55 1009.4
20260505021008 70 254 1.0 3.0 0.00 0.00 0.00 54 1009.4
20260505020504 70 181 0.0 3.0 0.00 0.00 0.00 54 1009.3
20260505020022 71 208 0.0 2.0 0.00 0.00 0.00 53 1009.3
20260505015508 71 169 0.0 3.0 0.00 0.00 0.00 53 1009.4
20260505015008 71 252 0.0 4.0 0.00 0.00 0.00 53 1009.4
20260505014535 71 203 1.0 4.0 0.00 0.00 0.00 52 1009.4
20260505014008 72 207 1.0 4.0 0.00 0.00 0.00 51 1009.4
20260505013510 72 228 1.0 4.0 0.00 0.00 0.00 50 1009.3
20260505013027 73 160 1.0 4.0 0.00 0.00 0.00 50 1009.4
20260505012508 74 146 1.0 4.0 0.00 0.00 0.00 49 1009.4
20260505012008 74 189 2.0 4.0 0.00 0.00 0.00 47 1009.4
20260505011527 75 220 1.0 4.0 0.00 0.00 0.00 45 1009.4
20260505011006 76 265 1.0 4.0 0.00 0.00 0.00 42 1009.5
20260505010507 76 354 1.0 4.0 0.00 0.00 0.00 41 1009.5
20260505010020 76 359 0.0 3.0 0.00 0.00 0.00 44 1009.5
20260505005508 76 245 1.0 3.0 0.00 0.00 0.00 45 1009.5
20260505005008 77 356 1.0 5.0 0.00 0.00 0.00 44 1009.5
20260505004530 77 254 1.0 5.0 0.00 0.00 0.00 44 1009.5
20260505004009 77 195 1.0 5.0 0.00 0.00 0.00 44 1009.5
20260505003507 77 224 0.0 5.0 0.00 0.00 0.00 44 1009.5
20260505003027 78 267 1.0 5.0 0.00 0.00 0.00 43 1009.6
20260505002511 78 186 1.0 4.0 0.00 0.00 0.00 44 1009.4
20260505002012 78 203 1.0 4.0 0.00 0.00 0.00 44 1009.5
20260505001528 78 300 1.0 4.0 0.00 0.00 0.00 44 1009.6
20260505001008 78 259 1.0 6.0 0.00 0.00 0.00 44 1009.5
20260505000508 77 186 2.0 6.0 0.00 0.00 0.00 43 1009.5
20260505000017 78 266 1.0 4.0 0.00 0.00 0.00 42 1009.6
20260504235507 78 358 1.0 4.0 0.00 0.00 0.00 42 1009.6
20260504235008 78 236 1.0 4.0 0.00 0.00 0.00 44 1009.6
20260504234523 77 259 1.0 4.0 0.00 0.00 0.00 42 1009.7
20260504234011 77 218 2.0 4.0 0.00 0.00 0.00 41 1009.8
20260504233507 77 304 2.0 4.0 0.00 0.00 0.00 42 1009.7
20260504233028 78 330 1.0 5.0 0.00 0.00 0.00 41 1009.7
20260504232508 78 151 1.0 5.0 0.00 0.00 0.00 41 1009.8
20260504232010 78 21 1.0 4.0 0.00 0.00 0.00 40 1009.8
20260504231529 78 253 2.0 4.0 0.00 0.00 0.00 40 1009.9
20260504231010 78 235 1.0 4.0 0.00 0.00 0.00 38 1009.9
20260504230508 79 284 1.0 5.0 0.00 0.00 0.00 40 1009.9
20260504230030 78 257 1.0 5.0 0.00 0.00 0.00 42 1009.9
20260504225507 77 357 2.0 5.0 0.00 0.00 0.00 39 1009.9
20260504225008 78 319 2.0 5.0 0.00 0.00 0.00 39 1009.9
20260504224525 78 178 0.0 4.0 0.00 0.00 0.00 42 1010.0
20260504224006 78 44 2.0 5.0 0.00 0.00 0.00 40 1009.9
20260504223512 78 331 0.0 5.0 0.00 0.00 0.00 42 1010.0
20260504223025 78 248 1.0 4.0 0.00 0.00 0.00 42 1010.0
20260504222509 77 1 1.0 4.0 0.00 0.00 0.00 41 1010.1
20260504222010 78 298 1.0 5.0 0.00 0.00 0.00 38 1010.2
20260504221527 78 242 2.0 6.0 0.00 0.00 0.00 41 1010.2
20260504221009 79 352 1.0 6.0 0.00 0.00 0.00 40 1010.3
20260504220513 78 211 1.0 5.0 0.00 0.00 0.00 41 1010.4
20260504220028 78 321 2.0 6.0 0.00 0.00 0.00 41 1010.4
20260504215511 78 81 1.0 6.0 0.00 0.00 0.00 41 1010.5
20260504215011 79 326 1.0 6.0 0.00 0.00 0.00 39 1010.5
20260504214530 78 359 1.0 5.0 0.00 0.00 0.00 39 1010.5
20260504214009 78 349 1.0 5.0 0.00 0.00 0.00 38 1010.6
20260504213514 77 359 1.0 4.0 0.00 0.00 0.00 37 1010.6
20260504213023 78 189 1.0 4.0 0.00 0.00 0.00 40 1010.6
20260504212507 78 359 1.0 4.0 0.00 0.00 0.00 38 1010.7
20260504212013 77 333 2.0 4.0 0.00 0.00 0.00 40 1010.7
20260504211527 77 46 1.0 5.0 0.00 0.00 0.00 42 1010.7
20260504211008 78 344 3.0 5.0 0.00 0.00 0.00 42 1010.8
20260504210509 77 327 2.0 5.0 0.00 0.00 0.00 42 1010.8
20260504210036 77 295 1.0 6.0 0.00 0.00 0.00 45 1010.8
20260504205509 76 250 2.0 6.0 0.00 0.00 0.00 43 1010.8
20260504205009 76 235 2.0 6.0 0.00 0.00 0.00 42 1010.8
20260504204532 76 202 1.0 6.0 0.00 0.00 0.00 44 1010.8
20260504204009 76 51 1.0 5.0 0.00 0.00 0.00 43 1010.8
20260504203509 76 342 1.0 5.0 0.00 0.00 0.00 46 1010.9
20260504203031 76 162 3.0 5.0 0.00 0.00 0.00 46 1010.9
20260504202510 75 233 2.0 5.0 0.00 0.00 0.00 47 1010.9
20260504202008 75 297 1.0 5.0 0.00 0.00 0.00 46 1010.9
20260504201525 75 23 0.0 6.0 0.00 0.00 0.00 46 1010.9
20260504201006 74 275 3.0 7.0 0.00 0.00 0.00 45 1011.0
20260504200509 74 350 2.0 7.0 0.00 0.00 0.00 47 1011.0
20260504200010 74 250 1.0 4.0 0.00 0.00 0.00 50 1011.0
20260504195502 75 13 0.0 3.0 0.00 0.00 0.00 48 1011.0
20260504195003 74 347 0.0 4.0 0.00 0.00 0.00 49 1011.0
20260504194515 73 219 1.0 4.0 0.00 0.00 0.00 47 1011.0
20260504194007 73 352 1.0 5.0 0.00 0.00 0.00 47 1011.0
20260504193506 73 188 2.0 5.0 0.00 0.00 0.00 48 1011.0
20260504193018 73 220 1.0 4.0 0.00 0.00 0.00 51 1011.0
20260504192508 72 188 1.0 5.0 0.00 0.00 0.00 52 1011.0
20260504192006 72 244 2.0 4.0 0.00 0.00 0.00 51 1010.9
20260504191522 72 138 1.0 4.0 0.00 0.00 0.00 50 1011.0
20260504191006 72 238 1.0 4.0 0.00 0.00 0.00 50 1011.0
20260504190513 71 174 1.0 5.0 0.00 0.00 0.00 50 1011.0
20260504190026 71 210 1.0 5.0 0.00 0.00 0.00 51 1011.0
20260504185508 71 202 1.0 5.0 0.00 0.00 0.00 50 1011.1
20260504185002 72 276 2.0 5.0 0.00 0.00 0.00 50 1011.1
20260504184510 71 188 1.0 5.0 0.00 0.00 0.00 49 1011.1
20260504184003 72 250 2.0 5.0 0.00 0.00 0.00 48 1011.1
20260504183506 72 255 2.0 5.0 0.00 0.00 0.00 47 1011.0
20260504183019 72 351 1.0 5.0 0.00 0.00 0.00 48 1011.0
20260504182508 72 248 1.0 5.0 0.00 0.00 0.00 47 1011.0
20260504182008 71 352 1.0 5.0 0.00 0.00 0.00 50 1011.0
20260504181521 71 197 1.0 6.0 0.00 0.00 0.00 46 1011.0
20260504181008 71 357 2.0 5.0 0.00 0.00 0.00 49 1011.0
20260504180509 70 1 1.0 5.0 0.00 0.00 0.00 52 1010.9
20260504180025 70 174 1.0 5.0 0.00 0.00 0.00 52 1010.9
20260504175511 70 172 1.0 4.0 0.00 0.00 0.00 52 1010.9
20260504175009 70 194 0.0 4.0 0.00 0.00 0.00 52 1010.9
20260504174528 69 179 1.0 4.0 0.00 0.00 0.00 52 1010.8
20260504174009 69 279 0.0 4.0 0.00 0.00 0.00 54 1010.8
20260504173504 68 264 2.0 4.0 0.00 0.00 0.00 50 1010.8
20260504173018 69 209 1.0 4.0 0.00 0.00 0.00 52 1010.8
20260504172503 69 233 1.0 4.0 0.00 0.00 0.00 57 1010.8
20260504172007 69 242 1.0 2.0 0.00 0.00 0.00 55 1010.8
20260504171520 68 17 0.0 2.0 0.00 0.00 0.00 57 1010.8
20260504171007 69 266 0.0 3.0 0.00 0.00 0.00 59 1010.8
20260504170514 68 221 1.0 4.0 0.00 0.00 0.00 63 1010.9
20260504151007 58 321 0.0 0.0 0.00 0.00 0.00 78 1010.7
20260504150508 58 321 0.0 0.0 0.00 0.00 0.00 79 1010.6
20260504141008 54 111 0.0 0.0 0.00 0.00 0.00 85 1010.2
20260504140510 53 110 0.0 0.0 0.00 0.00 0.00 86 1010.2
20260504130509 51 124 0.0 2.0 0.00 0.00 0.00 87 1009.9
20260504110503 53 273 0.0 0.0 0.00 0.00 0.00 81 1009.7
20260504100507 53 97 0.0 0.0 0.00 0.00 0.00 80 1009.9
20260504082003 56 97 0.0 0.0 0.00 0.00 0.00 73 1009.6
20260504081504 56 97 0.0 0.0 0.00 0.00 0.00 71 1009.7
20260504081002 56 97 0.0 0.0 0.00 0.00 0.00 71 1009.8
20260504080503 56 97 0.0 1.0 0.00 0.00 0.00 72 1009.7
20260504050508 62 70 0.0 2.0 0.00 0.00 0.00 62 1009.7